Wind_Speed
32 33 31 30 31 28 25 22 19 17 18 20 19 20 18 17 17 15 15 18 18 18 15 11 11 6 4 4 5 7 6 7 9 11 12 11 11 14
32 32 32 32 32 29 25 23 21 17 15 16 18 19 19 18 16 15 13 13 12 11 12 12 11 8 8 7 6 6 7 9 11 13 12 11 12 14
30 30 32 33 32 29 25 23 20 19 19 17 16 19 19 15 14 13 10 8 8 12 15 14 13 11 9 8 8 9 10 12 13 13 12 12 13 15
29 28 30 32 32 29 25 22 20 19 18 16 17 18 18 15 13 13 11 9 10 14 15 14 12 10 10 10 10 12 12 14 14 13 13 13 13 16
27 26 28 30 32 29 25 24 21 20 20 18 17 18 17 15 12 10 13 11 13 15 15 16 16 14 13 13 13 15 15 15 15 14 14 14 14 17
28 26 25 27 29 28 25 24 21 21 22 20 18 17 19 20 18 14 15 17 17 19 20 21 22 22 20 19 17 16 17 18 17 16 15 14 15 17
22 22 22 24 25 26 25 22 20 21 23 22 23 24 25 23 23 20 21 21 21 20 22 25 25 26 25 24 23 19 17 19 19 18 18 18 17 18
23 21 22 22 22 23 24 21 20 20 21 23 24 27 27 23 23 24 23 22 23 24 24 26 26 27 28 28 29 26 22 21 21 20 20 21 20 19
28 27 26 26 26 25 26 25 23 23 23 24 23 19 24 23 23 25 24 22 22 25 25 26 25 27 27 29 31 31 29 27 24 23 21 21 20 20
25 25 25 25 24 25 26 27 27 28 28 27 27 25 24 24 25 27 26 25 23 23 24 25 26 27 29 31 31 31 32 32 30 27 24 23 22 23
27 27 26 24 24 24 25 25 26 27 29 29 29 28 28 28 28 28 28 28 28 25 24 24 25 26 28 30 33 31 30 32 34 34 30 27 26 24
31 30 29 28 27 25 26 26 27 28 29 30 30 30 29 29 30 30 30 30 29 28 26 26 26 26 26 26 25 24 26 30 34 35 32 30 29 26
34 33 33 33 32 32 32 31 31 31 33 33 32 32 33 34 35 35 33 32 32 31 30 29 29 28 29 29 27 24 25 28 31 32 32 31 31 32
39 37 37 36 36 35 35 35 35 35 35 35 35 35 35 36 37 38 38 38 38 36 33 32 31 31 31 31 29 27 24 23 24 25 25 28 29 26
42 43 44 43 41 39 37 36 35 35 36 37 37 38 39 38 38 39 39 38 38 37 35 33 32 32 32 32 31 30 29 28 27 27 28 28 27 22
46 48 49 48 45 43 40 38 37 37 36 36 37 39 40 41 40 40 40 41 40 40 39 38 38 38 37 36 35 33 32 32 30 28 27 24 23 21
35 39 42 42 41 38 35 34 34 35 36 38 38 40 41 41 40 40 40 40 40 40 40 39 39 41 40 38 37 35 33 32 31 29 27 25 23 22
33 31 29 29 29 30 30 31 32 33 33 33 35 37 39 40 39 38 39 38 38 38 38 38 39 39 40 39 37 35 34 33 32 31 29 26 24 22
38 37 35 35 33 33 33 35 36 36 36 36 35 34 36 38 39 37 38 39 39 39 39 39 40 40 40 38 37 36 35 33 31 30 30 28 27 25
43 44 44 43 42 41 42 43 44 44 42 39 39 39 37 36 37 36 36 37 40 40 41 41 41 41 41 40 39 39 39 36 34 33 32 31 28 28
49 49 49 48 50 50 49 47 47 47 46 44 42 41 42 42 42 41 40 39 40 41 42 42 42 42 42 42 42 42 41 41 39 36 35 34 32 31
51 51 50 49 49 50 50 51 51 51 49 49 50 48 46 46 45 45 44 45 46 45 44 43 45 45 45 45 45 45 45 45 44 42 40 38 37 37
51 51 51 51 52 53 51 51 52 53 52 52 52 51 49 48 49 50 50 48 46 48 48 47 48 49 50 51 51 50 50 49 47 46 45 43 42 41
Wind_Direction
270 265 259 255 258 264 273 275 270 270 271 274 278 278 286 286 280 276 273 265 255 252 258 260 259 237 192 165 194 209 227 254 277 287 289 292 296 304
270 266 256 250 254 261 268 269 263 261 267 271 272 277 286 287 272 261 258 253 247 240 220 216 213 200 188 197 203 227 254 274 283 285 290 295 304 316
269 265 255 249 252 260 264 264 257 253 263 268 272 281 278 268 257 251 236 228 220 208 206 208 206 211 213 231 245 258 268 275 282 287 290 294 307 317
264 262 253 249 252 260 261 261 253 244 251 256 263 275 270 261 252 245 235 227 221 213 214 216 210 212 224 247 264 270 269 274 280 285 288 292 301 312
259 259 254 249 250 253 255 256 247 239 246 249 254 256 254 246 241 263 240 235 237 232 230 228 224 227 239 258 270 272 274 277 279 283 287 291 300 312
255 255 252 247 248 249 251 252 247 243 247 242 242 247 252 242 240 255 245 241 241 242 236 234 234 236 242 252 259 268 274 277 274 275 281 288 296 305
251 248 245 241 242 246 250 249 246 242 242 241 239 244 251 247 244 240 244 243 246 245 239 237 239 240 244 246 247 258 268 271 269 272 277 281 286 297
250 250 245 241 237 247 245 245 247 244 241 238 239 239 240 247 245 240 248 246 250 248 250 253 253 249 249 250 247 252 261 269 269 269 273 278 286 295
253 251 245 242 244 249 246 245 247 244 238 232 232 233 234 237 244 247 254 259 254 253 256 257 259 262 263 255 256 257 257 263 267 269 271 275 281 290
250 249 248 250 251 250 249 247 246 245 241 237 235 238 243 242 247 245 248 253 257 256 256 255 256 262 261 261 262 264 259 259 264 266 269 274 278 282
247 248 249 251 251 251 250 246 243 243 241 240 240 241 246 248 247 245 247 246 254 260 260 259 262 260 260 256 256 257 261 263 263 263 263 266 273 279
246 247 249 251 250 248 247 245 244 245 245 243 244 245 245 247 249 249 250 250 250 251 254 258 262 261 259 252 253 255 263 266 266 268 267 269 277 282
249 247 249 251 250 249 249 249 250 249 248 247 248 249 249 247 245 247 249 251 252 251 252 253 254 256 254 255 254 258 268 272 273 273 271 271 274 279
251 250 251 251 250 251 252 252 253 254 255 254 254 254 253 251 249 248 248 250 252 254 254 251 250 250 253 258 254 255 261 269 270 268 270 276 276 273
256 256 258 254 250 252 254 254 255 256 257 258 258 257 256 255 252 251 250 250 251 251 252 252 251 250 253 258 256 257 258 259 261 265 270 280 278 265
257 257 256 253 251 253 256 259 261 262 262 263 262 261 258 256 254 253 252 251 250 251 252 254 255 255 256 257 257 256 258 261 260 263 266 272 273 261
261 258 256 255 255 257 263 268 270 269 268 266 263 261 259 255 253 252 251 251 252 252 253 252 253 255 257 256 255 254 253 255 258 259 260 263 265 268
259 259 256 258 262 265 265 266 268 269 269 268 263 259 257 255 253 252 251 250 250 251 252 253 252 253 254 253 252 252 252 253 253 255 258 261 266 269
253 252 253 258 264 267 269 273 275 275 270 265 263 259 257 256 253 250 250 250 251 252 252 253 253 253 252 251 251 252 253 252 251 251 256 261 267 271
255 257 258 261 265 265 266 270 274 277 273 267 263 259 256 255 255 252 251 251 251 251 251 252 252 252 252 250 249 251 253 253 252 252 255 258 262 269
254 255 257 260 262 264 265 265 265 265 266 267 265 262 259 257 257 257 255 254 253 252 252 251 251 252 252 253 252 250 250 251 253 253 255 255 257 261
264 263 263 262 261 261 262 262 262 261 262 265 266 264 261 260 260 260 259 258 257 255 254 252 251 249 250 251 252 251 249 248 247 248 249 252 255 258
262 261 261 261 261 260 259 258 258 258 259 260 262 262 261 259 259 257 257 256 256 256 254 252 250 248 248 249 250 250 250 249 247 246 245 246 249 254
Height
5818 5817 5817 5819 5821 5822 5821 5820 5821 5820 5820 5820 5819 5820 5819 5819 5819 5818 5817 5817 5816 5816 5817 5817 5818 5818 5819 5821 5823 5824 5825 5825 5825 5824 5825 5825 5825 5823
5810 5810 5810 5811 5813 5814 5815 5814 5815 5816 5816 5816 5816 5816 5815 5813 5814 5815 5815 5815 5813 5813 5813 5815 5817 5818 5820 5821 5822 5823 5823 5823 5823 5823 5823 5823 5822 5820
5802 5802 5803 5804 5805 5808 5809 5809 5809 5810 5811 5811 5811 5811 5811 5810 5810 5811 5812 5811 5810 5810 5812 5814 5815 5818 5819 5820 5820 5820 5821 5822 5821 5820 5820 5819 5818 5816
5794 5794 5795 5797 5798 5801 5803 5804 5804 5804 5805 5806 5806 5806 5807 5807 5808 5809 5809 5809 5809 5809 5811 5813 5814 5815 5817 5817 5818 5819 5819 5820 5819 5818 5817 5816 5815 5813
5786 5787 5788 5789 5791 5794 5795 5797 5798 5799 5800 5801 5801 5802 5803 5804 5805 5806 5806 5808 5808 5808 5809 5810 5812 5813 5815 5815 5816 5817 5817 5817 5817 5815 5814 5813 5812 5810
5778 5779 5780 5781 5784 5787 5788 5789 5790 5792 5794 5795 5796 5797 5798 5800 5801 5802 5803 5803 5804 5805 5806 5807 5807 5809 5810 5812 5813 5813 5814 5814 5813 5812 5811 5810 5808 5806
5769 5771 5772 5774 5777 5781 5782 5783 5785 5786 5788 5789 5790 5791 5792 5794 5796 5797 5798 5799 5799 5800 5802 5802 5802 5804 5805 5806 5807 5808 5809 5809 5809 5809 5808 5806 5804 5803
5764 5765 5766 5768 5771 5774 5776 5777 5779 5780 5782 5783 5784 5785 5787 5789 5791 5791 5793 5794 5795 5796 5797 5797 5797 5798 5800 5801 5802 5803 5804 5805 5805 5804 5804 5802 5801 5800
5757 5758 5760 5762 5764 5766 5768 5771 5773 5774 5775 5776 5778 5780 5781 5783 5785 5786 5788 5789 5790 5791 5792 5792 5792 5793 5794 5795 5797 5797 5798 5799 5799 5799 5799 5797 5796 5795
5750 5751 5752 5753 5755 5758 5760 5763 5765 5767 5768 5769 5770 5773 5776 5777 5777 5779 5781 5784 5785 5785 5785 5785 5786 5787 5788 5787 5790 5790 5790 5792 5793 5794 5793 5793 5791 5790
5742 5744 5745 5746 5748 5750 5752 5754 5756 5758 5760 5761 5763 5765 5767 5769 5771 5771 5774 5777 5779 5780 5780 5779 5779 5780 5781 5780 5781 5783 5784 5784 5786 5786 5786 5787 5786 5785
5734 5735 5737 5739 5740 5742 5745 5747 5749 5751 5753 5754 5755 5757 5759 5761 5762 5764 5765 5768 5771 5774 5774 5773 5773 5774 5774 5775 5775 5776 5778 5778 5778 5779 5780 5780 5780 5780
5724 5726 5729 5731 5733 5735 5738 5740 5742 5743 5744 5746 5747 5748 5751 5753 5754 5756 5757 5759 5762 5764 5766 5767 5767 5767 5768 5769 5769 5770 5771 5771 5772 5772 5772 5774 5774 5774
5715 5717 5719 5722 5725 5727 5730 5732 5734 5736 5736 5737 5738 5739 5740 5742 5744 5747 5749 5751 5753 5754 5756 5758 5758 5760 5761 5761 5761 5762 5764 5765 5765 5766 5766 5767 5767 5768
5706 5708 5710 5712 5715 5717 5720 5722 5724 5726 5727 5727 5728 5730 5732 5733 5734 5736 5738 5741 5743 5744 5747 5749 5750 5752 5753 5753 5755 5755 5756 5758 5759 5759 5760 5760 5760 5762
5694 5696 5698 5701 5703 5705 5708 5711 5713 5715 5716 5717 5717 5719 5720 5722 5724 5725 5726 5729 5732 5734 5736 5739 5741 5742 5743 5745 5747 5748 5748 5749 5751 5752 5753 5753 5753 5755
5684 5685 5688 5691 5692 5694 5697 5700 5703 5704 5705 5706 5707 5708 5709 5711 5712 5714 5716 5718 5720 5723 5725 5727 5729 5732 5733 5735 5737 5739 5739 5740 5741 5743 5745 5746 5747 5748
5675 5677 5677 5679 5680 5682 5685 5688 5690 5692 5693 5695 5696 5696 5697 5699 5701 5703 5706 5708 5710 5712 5714 5716 5718 5720 5723 5726 5727 5729 5731 5732 5734 5735 5737 5738 5740 5741
5665 5666 5667 5668 5671 5673 5674 5675 5677 5679 5681 5683 5684 5685 5686 5687 5689 5692 5694 5696 5698 5701 5703 5706 5707 5710 5713 5716 5717 5720 5722 5723 5724 5726 5728 5730 5731 5733
5653 5654 5655 5657 5658 5660 5661 5662 5663 5664 5666 5669 5670 5672 5673 5675 5677 5679 5681 5684 5686 5687 5689 5693 5696 5699 5702 5704 5707 5709 5711 5714 5716 5718 5720 5722 5724 5725
5637 5638 5640 5641 5642 5643 5645 5646 5648 5650 5652 5654 5656 5658 5660 5663 5664 5666 5669 5671 5673 5674 5676 5679 5682 5685 5688 5691 5695 5698 5702 5704 5705 5707 5709 5712 5715 5717
5619 5620 5621 5623 5624 5626 5627 5628 5631 5633 5635 5637 5639 5642 5645 5648 5650 5652 5655 5657 5659 5662 5664 5666 5668 5671 5673 5677 5680 5683 5687 5691 5693 5695 5697 5700 5701 5704
5601 5601 5602 5603 5605 5607 5608 5609 5611 5614 5617 5619 5620 5623 5628 5632 5634 5636 5639 5642 5643 5646 5648 5650 5653 5655 5658 5661 5665 5668 5672 5675 5678 5681 5683 5686 5689 5692